Tracking 33199 objects as of 16-Feb-2026
HD Live streaming from Space Station
objects crossing your sky now

COSMOS 1275 DEB

Track COSMOS 1275 DEB now!
10-day predictions


NORAD ID: 42101
Int'l Code: 1981-053PM
Perigee: 596.5 km
Apogee: 607.9 km
Inclination: 82.8 °
Period: 96.6 minutes
Semi major axis: 6973 km
RCS: Unknown
Launch date: June 4, 1981
Source: Commonwealth of Independent States (former USSR) (CIS)
Launch site: PLESETSK MISSILE AND SPACE COMPLEX (PKMTR)

Note: This is SATELLITE DEBRIS
Your satellite tracking list
Your tracking list is empty




NASA's NSSDC Master Catalog

Two Line Element Set (TLE):
1 42101U 81053PM  26037.64498596  .00057548  00000-0  57870-2 0  9992
2 42101  82.7611   6.9089 0008119  93.6236 266.5913 14.90919402594385
Source of the keplerian elements: AFSPC